Weather Roundup
Issued by NWS Chicago, IL

Home | Current Version | Previous Version | Text Only | Print | Product List | Glossary On
Versions: 1 2 3 4 5 6 7 8 9 10 11 12 13 14 15 16 17 18 19 20 21 22 23 24 25 26 27 28 29 30 31 32 33 34 35 36 37 38 39 40 41 42 43 44 45 46 47 48 49 50
000
NZUS59 KLOT 171410
HRRLOT

CHICAGO AREA WEATHER ROUNDUP
NATIONAL WEATHER SERVICE CHICAGO/ROMEOVILLE IL
900 AM CDT WED SEP 17 2014

NOTE: "FAIR" INDICATES FEW OR NO CLOUDS BELOW 12,000 FEET WITH NO
SIGNIFICANT WEATHER AND/OR OBSTRUCTIONS TO VISIBILITY.

* THESE STATIONS ARE NOT UNDER NWS QUALITY CONTROL. THEY ALSO MAY NOT
  REPORT WEATHER SUCH AS PRECIPITATION OR FOG.

ILZ005-006-012>014-019>023-171500-
NORTHEAST ILLINOIS

CITY           SKY/WX    TMP DP  RH WIND       PRES   REMARKS
OHARE          MOSUNNY   56  46  69 W3        30.04F
MIDWAY         MOSUNNY   59  48  67 CALM      30.04F
AURORA         SUNNY     53  48  83 CALM      30.05F
LANSING*       SUNNY     54  51  89 CALM      30.04F
JOLIET*        SUNNY     53  51  95 CALM      30.05F
WAUKEGAN       SUNNY     58  47  66 W3        30.03F
DUPAGE AIRPORT SUNNY     56  49  77 CALM      30.04F
WHEELING       SUNNY     57  47  69 CALM      30.05F
KANKAKEE*      SUNNY     52  50  93 CALM      30.05F
MORRIS*        SUNNY     53  51  94 CALM      30.03F
LEWIS AIRPORT* SUNNY     55  50  86 CALM      30.04F
NORTHERLY IS     N/A     58  44  60 SW7         N/A
$$

WIZ051-052-058>065-066-070>072-171500-
SOUTHEAST WISCONSIN

CITY           SKY/WX    TMP DP  RH WIND       PRES   REMARKS
MILWAUKEE      MOSUNNY   57  44  62 W3        30.04F
KENOSHA*       MOSUNNY   55  49  80 W3        30.04F
RACINE*        MOSUNNY   57  47  69 W5        30.05F
BURLINGTON     SUNNY     48  48 100 CALM      30.03F
WAUKESHA       SUNNY     52  46  82 CALM      30.04F
WEST BEND      PTSUNNY   54  45  71 CALM      30.03S
$$

INZ001>003-010>013-019-020-171500-
NORTHWEST INDIANA

CITY           SKY/WX    TMP DP  RH WIND       PRES   REMARKS
GARY*          MOSUNNY   55  50  82 S3        30.05F
MICHIGAN CITY* NOT AVBL
RENSSELAER*    NOT AVBL
VALPARAISO     SUNNY     55  51  86 CALM      30.05F
$$

LMZ740>746-171500-
SOUTHERN LAKE MICHIGAN

STATION/POSITION TIME  SKY/WX   TEMP WIND        PRES    VSBY
                                AIR  DIR/SP/G
                 (UTC)          (F)  (DEG/KT/KT) (MB)    (MI)
HARRISON CRIB    1400            61  250/  1/  2   N/A
BURNHAM HARBOR   1400            59  250/  4/  8   N/A
CALUMET HARBOR   1400            56  210/  2/  4 1016.0F
BURNS HARBOR     NOT AVBL
MICHIGAN CITY    1400            56  140/  6/  8   N/A
$$

ABBREVIATIONS USED IN REMARKS
   TC - TEMPERATURE IN CELSIUS
  WCI - WIND CHILL INDEX
   HX - HEAT INDEX
  VSB - VISIBILITY
$$


USA.gov is the U.S. government's official web portal to all federal, state and local government web resources and services.